Location: *
(53.4003°S, 165.3236°W)
Time: 01:46:45
(UTC+00:00)

ATLAS 2AS CENTAUR R/B - Pass Details

Date: 11 December 2023
Orbit: 1004 x 1207 km, 63.7° (Epoch: 18 February)

Event Time Altitude Azimuth Distance (km) Brightness Sun altitude
Rises 13:18:27 0° 244° (WSW) 3,878 5.6 -7.5°
Reaches altitude 10° 13:21:16 10° 236° (SW) 2,952 5.0 -7.3°
Maximum altitude 13:27:50 39° 167° (SSE) 1,633 4.4 -6.7°
Drops below altitude 10° 13:34:40 10° 100° (E) 3,085 5.9 -6.1°
Sets 13:37:41 0° 92° (E) 4,071 6.4 -5.8°
